sat.trackr.live / text

‹ back to catalog

KUIPER-00167

NORAD 65780 · 2025-217U

PAYLOAD ACTIVE UNKNOWN

§ Identity

Operator
Country
US
Launch date
2025-09-25
Launch site
AFETR
Launch vehicle
Mass (kg)
RCS (m²)

External: N2YO · Heavens-Above · Gunter

§ Orbital elements

Epoch: 2026-09-20T12:54:34.447680Z

Period
97.30 min
Inclination
51.8960°
Eccentricity
0.0000732
Mean motion
14.79936087 rev/d
Perigee alt
629.0 km
Apogee alt
630.0 km
Semi-major
7,007.7 km
B*
2.5513e-4
RAAN
263.8671°
Arg perigee
51.8651°
Mean anomaly
308.2377°
Rev number
5,369

§ Raw data

KUIPER-001671 65780U 25217U   26263.53789870  .00001724  00000+0  25513-3 0  99912 65780  51.8960 263.8671 0000732  51.8651 308.2377 14.79936087 53695

JSON: /api/v1/satellites/65780 · /tle

For live sub-satellite position, see the globe view (requires WebGL).

§ Visibility from observer

Set your observer location to see the next 7 days of passes ≥ 10°. The values pass through the URL so the page stays shareable.

No JS? Fill the form by hand. The geolocation button needs JavaScript.